DHK7OB EDDF-LTFM

Flight info

Callsign DHK7OB
Flight time N/A
Altitude 31000
Route CINDY8S/18 CINDY Z74 HAREM DCT ASLEP DCT TAKUT DCT DINKU L603 BESNI/N0448F350 L605 MIQ DCT ALUTU DCT BIBAG L605 ESEGA DCT VELOM DCT GOTAR/N0447F370 DCT BABIT DCT ESIRI DCT ETIDA T390 RILEX
Aircraft B738/M-SDE2E3FGHIRWXY/LB1

Departure

Time N/A
Airport Frankfurt Main Airport (EDDF)

Arrival

Time 2026-05-03 20:49
Airport İstanbul Airport (LTFM)
Time Latitude Longitude Altitude Speed Heading
2026-05-03 20:15 42.23555 26.13616 37123 ft 468 kts 117°
2026-05-03 20:15 42.20385 26.21227 37133 ft 468 kts 118°
2026-05-03 20:16 42.17191 26.28882 37124 ft 468 kts 118°
2026-05-03 20:16 42.13911 26.36340 36391 ft 455 kts 124°
2026-05-03 20:16 42.12049 26.39763 35548 ft 453 kts 126°
2026-05-03 20:17 42.10136 26.43132 34761 ft 450 kts 127°
2026-05-03 20:17 42.08232 26.46445 34155 ft 444 kts 127°
2026-05-03 20:17 42.06384 26.49671 33852 ft 427 kts 127°
2026-05-03 20:17 42.04601 26.52804 33266 ft 418 kts 127°
2026-05-03 20:18 42.02850 26.55904 32429 ft 415 kts 127°
2026-05-03 20:18 42.01110 26.58997 31599 ft 413 kts 126°
2026-05-03 20:18 41.99387 26.62070 30863 ft 410 kts 126°
2026-05-03 20:18 41.97677 26.65121 30190 ft 406 kts 126°
2026-05-03 20:19 41.95989 26.68131 29494 ft 400 kts 126°
2026-05-03 20:19 41.94322 26.71102 29028 ft 397 kts 127°
2026-05-03 20:19 41.92665 26.74052 28580 ft 393 kts 127°
2026-05-03 20:19 41.91032 26.76955 28150 ft 389 kts 127°
2026-05-03 20:20 41.89407 26.79841 27720 ft 385 kts 127°
2026-05-03 20:20 41.87799 26.82694 27304 ft 381 kts 127°
2026-05-03 20:20 41.86206 26.85519 26886 ft 378 kts 127°
2026-05-03 20:20 41.84626 26.88316 26473 ft 375 kts 127°
2026-05-03 20:21 41.83583 26.90162 26197 ft 373 kts 127°
2026-05-03 20:21 41.82019 26.92928 25808 ft 371 kts 127°
2026-05-03 20:21 41.79966 26.96555 25269 ft 367 kts 127°
2026-05-03 20:21 41.78920 26.98401 24982 ft 366 kts 127°
2026-05-03 20:22 41.77389 27.01101 24595 ft 363 kts 126°
2026-05-03 20:22 41.75862 27.03790 24196 ft 362 kts 126°
2026-05-03 20:22 41.74362 27.06432 23794 ft 360 kts 126°
2026-05-03 20:22 41.72844 27.09102 23331 ft 359 kts 126°
2026-05-03 20:23 41.71335 27.11753 22901 ft 357 kts 126°
2026-05-03 20:23 41.69836 27.14384 22464 ft 354 kts 126°
2026-05-03 20:23 41.68344 27.17002 22070 ft 352 kts 126°
2026-05-03 20:23 41.66867 27.19590 21685 ft 349 kts 126°
2026-05-03 20:24 41.65396 27.22166 21299 ft 347 kts 126°
2026-05-03 20:24 41.63937 27.24719 20899 ft 344 kts 126°
2026-05-03 20:24 41.62489 27.27250 20536 ft 342 kts 125°
2026-05-03 20:24 41.61043 27.29776 20155 ft 340 kts 124°
2026-05-03 20:25 41.59608 27.32279 19783 ft 339 kts 124°
2026-05-03 20:25 41.58179 27.34772 19401 ft 337 kts 124°
2026-05-03 20:25 41.56755 27.37254 19026 ft 335 kts 124°
2026-05-03 20:25 41.55336 27.39724 18650 ft 334 kts 124°
2026-05-03 20:26 41.53925 27.42179 18272 ft 333 kts 124°
2026-05-03 20:26 41.52518 27.44625 17848 ft 331 kts 124°
2026-05-03 20:26 41.51134 27.47029 17445 ft 329 kts 124°
2026-05-03 20:26 41.49719 27.49488 16848 ft 333 kts 124°
2026-05-03 20:27 41.48278 27.51994 15817 ft 350 kts 124°
2026-05-03 20:27 41.46774 27.54606 15060 ft 358 kts 125°
2026-05-03 20:27 41.45272 27.57207 14555 ft 357 kts 125°
2026-05-03 20:27 41.43761 27.59816 14129 ft 354 kts 125°
2026-05-03 20:28 41.42262 27.62403 13667 ft 352 kts 125°
2026-05-03 20:28 41.40768 27.64980 13161 ft 350 kts 125°
2026-05-03 20:28 41.39285 27.67535 12725 ft 346 kts 125°
2026-05-03 20:28 41.37819 27.70061 12278 ft 343 kts 124°
2026-05-03 20:29 41.36365 27.72565 11837 ft 341 kts 124°
2026-05-03 20:29 41.34917 27.75057 11396 ft 338 kts 124°
2026-05-03 20:29 41.33483 27.77521 10965 ft 336 kts 124°
2026-05-03 20:29 41.32059 27.79969 10558 ft 333 kts 124°
2026-05-03 20:30 41.30669 27.82352 10476 ft 319 kts 124°
2026-05-03 20:30 41.29332 27.84641 10395 ft 308 kts 123°
2026-05-03 20:30 41.28059 27.86819 10314 ft 296 kts 123°
2026-05-03 20:30 41.26802 27.88969 10236 ft 285 kts 123°
2026-05-03 20:31 41.25606 27.91015 10125 ft 276 kts 123°
2026-05-03 20:31 41.24454 27.92988 9921 ft 272 kts 123°
2026-05-03 20:31 41.23303 27.94960 9498 ft 271 kts 122°
2026-05-03 20:31 41.22129 27.96971 9123 ft 272 kts 122°
2026-05-03 20:32 41.20973 27.98948 8846 ft 270 kts 122°
2026-05-03 20:32 41.19824 28.00910 8551 ft 268 kts 122°
2026-05-03 20:32 41.18698 28.02831 8301 ft 267 kts 121°
2026-05-03 20:32 41.17556 28.04780 8042 ft 268 kts 121°
2026-05-03 20:33 41.16410 28.06734 7810 ft 268 kts 121°
2026-05-03 20:33 41.15264 28.08685 7558 ft 267 kts 121°
2026-05-03 20:33 41.14126 28.10621 7303 ft 265 kts 121°
2026-05-03 20:33 41.12995 28.12543 7053 ft 264 kts 121°
2026-05-03 20:34 41.11868 28.14458 6807 ft 262 kts 121°
2026-05-03 20:34 41.10748 28.16360 6559 ft 261 kts 120°
2026-05-03 20:34 41.09632 28.18254 6305 ft 260 kts 120°
2026-05-03 20:34 41.08523 28.20135 6028 ft 259 kts 120°
2026-05-03 20:35 41.07418 28.22009 5756 ft 257 kts 120°
2026-05-03 20:35 41.06316 28.23876 5493 ft 256 kts 120°
2026-05-03 20:35 41.05220 28.25731 5241 ft 255 kts 120°
2026-05-03 20:35 41.04126 28.27584 5056 ft 255 kts 120°
2026-05-03 20:36 41.03032 28.29435 5014 ft 256 kts 120°
2026-05-03 20:36 41.01933 28.31296 5000 ft 257 kts 120°
2026-05-03 20:36 41.00827 28.33164 4996 ft 258 kts 120°
2026-05-03 20:36 40.99739 28.34999 4987 ft 255 kts 120°
2026-05-03 20:37 40.98646 28.36849 4972 ft 246 kts 116°
2026-05-03 20:37 40.98004 28.38815 5005 ft 234 kts 96°
2026-05-03 20:37 40.97618 28.40935 4997 ft 240 kts 97°
2026-05-03 20:37 40.97205 28.43097 4989 ft 244 kts 97°
2026-05-03 20:38 40.96775 28.45268 4986 ft 244 kts 97°
2026-05-03 20:38 40.96336 28.47429 4967 ft 243 kts 98°
2026-05-03 20:38 40.95892 28.49580 4970 ft 242 kts 98°
2026-05-03 20:38 40.95447 28.51721 4969 ft 241 kts 98°
2026-05-03 20:39 40.94999 28.53857 4969 ft 241 kts 98°
2026-05-03 20:39 40.94551 28.55989 4972 ft 241 kts 98°
2026-05-03 20:39 40.94102 28.58119 4982 ft 241 kts 98°
2026-05-03 20:39 40.93649 28.60259 4974 ft 242 kts 98°
2026-05-03 20:40 40.93192 28.62408 4982 ft 243 kts 98°
2026-05-03 20:40 40.92859 28.64544 4965 ft 236 kts 81°
2026-05-03 20:40 40.93419 28.66486 4992 ft 222 kts 50°
2026-05-03 20:40 40.94381 28.68082 4979 ft 221 kts 49°
2026-05-03 20:41 40.95340 28.69638 4958 ft 213 kts 49°
2026-05-03 20:41 40.96235 28.71100 4952 ft 201 kts 49°
2026-05-03 20:41 40.97107 28.72471 4951 ft 188 kts 40°
2026-05-03 20:41 40.98267 28.73068 4982 ft 183 kts
2026-05-03 20:42 40.99554 28.73150 4994 ft 185 kts
2026-05-03 20:42 41.00817 28.73256 4982 ft 178 kts
2026-05-03 20:42 41.02035 28.73292 4962 ft 173 kts
2026-05-03 20:42 41.03239 28.73292 4911 ft 176 kts
2026-05-03 20:43 41.04482 28.73276 4685 ft 179 kts
2026-05-03 20:43 41.05709 28.73251 4451 ft 173 kts
2026-05-03 20:43 41.06875 28.73222 4202 ft 160 kts
2026-05-03 20:43 41.07917 28.73197 4010 ft 145 kts
2026-05-03 20:44 41.08894 28.73174 3798 ft 135 kts
2026-05-03 20:44 41.09808 28.73154 3629 ft 131 kts
2026-05-03 20:44 41.10731 28.73135 3452 ft 133 kts
2026-05-03 20:44 41.11670 28.73115 3273 ft 137 kts
2026-05-03 20:45 41.12613 28.73093 3080 ft 134 kts
2026-05-03 20:45 41.13543 28.73070 2897 ft 134 kts
2026-05-03 20:45 41.14474 28.73050 2709 ft 133 kts
2026-05-03 20:45 41.15381 28.73028 2530 ft 129 kts
2026-05-03 20:46 41.16286 28.73008 2342 ft 131 kts
2026-05-03 20:46 41.17177 28.72987 2186 ft 128 kts
2026-05-03 20:46 41.18085 28.72965 1990 ft 131 kts
2026-05-03 20:46 41.19005 28.72945 1794 ft 132 kts
2026-05-03 20:47 41.19908 28.72923 1650 ft 129 kts
2026-05-03 20:47 41.20785 28.72902 1478 ft 120 kts
2026-05-03 20:47 41.21591 28.72884 1283 ft 116 kts
2026-05-03 20:47 41.22401 28.72867 1132 ft 116 kts
2026-05-03 20:48 41.23203 28.72847 962 ft 116 kts
2026-05-03 20:48 41.24020 28.72808 828 ft 119 kts
2026-05-03 20:48 41.24851 28.72776 654 ft 118 kts
2026-05-03 20:48 41.25644 28.72787 479 ft 114 kts
2026-05-03 20:49 41.26436 28.72770 347 ft 112 kts
2026-05-03 20:49 41.27109 28.72758 332 ft 77 kts 359°
2026-05-03 20:49 41.27520 28.72750 333 ft 50 kts 359°
2026-05-03 20:49 41.27839 28.72742 333 ft 42 kts
2026-05-03 20:50 41.28058 28.72828 333 ft 20 kts 29°
2026-05-03 20:50 41.28086 28.72849 331 ft 2 kts 28°
2026-05-03 20:50 41.28099 28.72858 333 ft 2 kts 28°
2026-05-03 20:50 41.28111 28.72867 333 ft 2 kts 28°
2026-05-03 20:51 41.28126 28.72882 330 ft 4 kts 45°
2026-05-03 20:51 41.28131 28.72922 331 ft 5 kts 110°
2026-05-03 20:51 41.28093 28.72955 331 ft 8 kts 169°
2026-05-03 20:51 41.28018 28.72961 332 ft 13 kts 176°
2026-05-03 20:52 41.27914 28.72962 332 ft 17 kts 180°
2026-05-03 20:52 41.27783 28.72963 329 ft 21 kts 179°
2026-05-03 20:52 41.27631 28.72970 329 ft 23 kts 176°
2026-05-03 20:52 41.27489 28.72974 332 ft 20 kts 179°
2026-05-03 20:53 41.27394 28.73033 332 ft 16 kts 103°
2026-05-03 20:53 41.27393 28.73172 333 ft 15 kts 88°
2026-05-03 20:53 41.27395 28.73292 333 ft 9 kts 90°
2026-05-03 20:53 41.27404 28.73375 333 ft 8 kts 59°
2026-05-03 20:54 41.27452 28.73391 332 ft 5 kts 348°
2026-05-03 20:54 41.27487 28.73388 333 ft 0 kts 358°